Change the Weather History Date:

Wednesday, April 24, 2013

  Actual Average Record
Temperature  
Mean Temperature 56 °F -  
Max Temperature 69 °F 63 °F 69 °F (2013)
Min Temperature 42 °F 43 °F 30 °F (1997)
Degree Days  
Heating Degree Days 10    
Growing Degree Days 6 (Base 50)    
Moisture  
Dew Point 42 °F    
Average Humidity 62    
Maximum Humidity 87    
Minimum Humidity 29    
Precipitation  
Precipitation 0.00 in 0.09 in - ()
Sea Level Pressure  
Sea Level Pressure 30.27 in    
Wind  
Wind Speed 7 mph ()    
Max Wind Speed 10 mph    
Max Gust Speed -    
Visibility 9.3 miles    
Events      
Averages and records for this station are not official NWS values.
T = Trace of Precipitation, MM = Missing Value Source: Averaged Metar Reports

Daily Weather History Graph

Daily Weather History Graph

Search for Another Location

Airport or City:

Trip Planner

Search our weather history database for the weather conditions in past years. The results will help you decide how hot, cold, wet, or windy it might be!

Date:

Astronomy

Apr. 24, 2013 Rise Set
Actual Time 5:51 AM CEST 8:11 PM CEST
Civil Twilight 5:16 AM CEST 8:46 PM CEST
Nautical Twilight 4:31 AM CEST 9:31 PM CEST
Astronomical Twilight 3:40 AM CEST 10:23 PM CEST
Moon 6:49 PM CEST (4/24) 4:54 AM CEST (4/24)
Length of Visible Light 15h 30m
Length of Day
14h 19m
Waxing Gibbous, 97% of the Moon is Illuminated
Apr 24
Waxing Gibbous
Apr 25
Full
May 2
Last Quarter
May 10
New
May 18
First Quarter

Hourly Weather History & Observations

Time (CEST) Temp. Windchill Dew Point Humidity Pressure Visibility Wind Dir Wind Speed Gust Speed Precip Events Conditions
12:00 AM 48.2 °F - 39.2 °F 71% 30.21 in - SW 8.1 mph - N/A   Clear
12:30 AM 48.2 °F - 39.2 °F 71% 30.24 in - West 4.6 mph - N/A   Clear
1:00 AM 46.4 °F 42.4 °F 39.2 °F 76% 30.24 in - SW 8.1 mph - N/A   Clear
1:30 AM 46.4 °F 42.4 °F 39.2 °F 76% 30.24 in - SW 8.1 mph - N/A   Clear
2:00 AM 46 °F - 39 °F 70% 30.28 in 16 mi WSW 8.9 mph - -   Clear
2:00 AM 46.4 °F 42.9 °F 39.2 °F 76% 30.24 in - SW 6.9 mph - N/A   Clear
2:30 AM 44.6 °F 40.7 °F 39.2 °F 81% 30.24 in - SW 6.9 mph - N/A   Clear
3:00 AM 44.6 °F 40.2 °F 39.2 °F 81% 30.24 in - SW 8.1 mph - N/A   Clear
3:30 AM 44.6 °F 40.2 °F 39.2 °F 81% 30.27 in - SSW 8.1 mph - N/A   Clear
4:00 AM 44.6 °F 39.7 °F 39.2 °F 81% 30.27 in - SSW 9.2 mph - N/A   Clear
4:30 AM 42.8 °F 38.0 °F 37.4 °F 81% 30.27 in - SW 8.1 mph - N/A   Clear
5:00 AM 42.8 °F 38.0 °F 39.2 °F 87% 30.27 in - SSW 8.1 mph - N/A   Clear
5:30 AM 42.8 °F 37.5 °F 39.2 °F 87% 30.27 in - SW 9.2 mph - N/A   Clear
6:00 AM 42.8 °F 40.1 °F 39.2 °F 87% 30.27 in - SW 4.6 mph - N/A   Clear
6:30 AM 42.8 °F 39.3 °F 39.2 °F 87% 30.30 in - SW 5.8 mph - N/A   Clear
7:00 AM 46.4 °F 43.5 °F 41.0 °F 81% 30.30 in - SW 5.8 mph - N/A   Clear
7:30 AM 46.4 °F 43.5 °F 41.0 °F 81% 30.30 in - SSW 5.8 mph - N/A   Clear
8:00 AM 50 °F - 43 °F 68% 30.34 in 12 mi SW 6.7 mph - -   Clear
8:00 AM 50.0 °F - 42.8 °F 76% 30.30 in - SSW 6.9 mph - N/A   Clear
8:30 AM 51.8 °F - 42.8 °F 71% 30.33 in - SSW 5.8 mph - N/A   Clear
9:00 AM 53.6 °F - 42.8 °F 67% 30.33 in - SW 5.8 mph - N/A   Clear
9:30 AM 55.4 °F - 41.0 °F 58% 30.33 in - SW 3.5 mph - N/A   Clear
10:00 AM 57.2 °F - 42.8 °F 59% 30.33 in - WSW 3.5 mph - N/A   Clear
10:30 AM 60.8 °F - 42.8 °F 52% 30.33 in - WSW 3.5 mph - N/A   Clear
11:00 AM 60.8 °F - 41.0 °F 48% 30.33 in 6.2 mi South 3.5 mph - N/A   Partly Cloudy
11:30 AM 62.6 °F - 44.6 °F 52% 30.33 in 6.2 mi SSW 4.6 mph - N/A   Partly Cloudy
12:00 PM 62.6 °F - 41.0 °F 45% 30.33 in 6.2 mi SSW 9.2 mph - N/A   Partly Cloudy
12:30 PM 64.4 °F - 42.8 °F 45% 30.30 in - SW 8.1 mph - N/A   Clear
1:00 PM 64.4 °F - 44.6 °F 49% 30.30 in - West 4.6 mph - N/A   Clear
1:30 PM 66.2 °F - 42.8 °F 43% 30.30 in - SW 5.8 mph - N/A   Clear
2:00 PM 67 °F - 42 °F 29% 30.28 in 22 mi WSW 6.7 mph - -   Scattered Clouds
2:00 PM 66.2 °F - 42.8 °F 43% 30.30 in - WSW 6.9 mph - N/A   Clear
2:30 PM 68.0 °F - 44.6 °F 43% 30.30 in - West 4.6 mph - N/A   Clear
3:00 PM 66.2 °F - 42.8 °F 43% 30.27 in - West 9.2 mph - N/A   Clear
3:30 PM 68.0 °F - 42.8 °F 40% 30.27 in - SSW 8.1 mph - N/A   Clear
4:00 PM 68.0 °F - 44.6 °F 43% 30.27 in - WSW 10.4 mph - N/A   Clear
4:30 PM 69.8 °F - 46.4 °F 43% 30.27 in - West 9.2 mph - N/A   Clear
5:00 PM 68.0 °F - 44.6 °F 43% 30.24 in - WSW 8.1 mph - N/A   Clear
5:30 PM 69.8 °F - 44.6 °F 40% 30.24 in - WSW 8.1 mph - N/A   Clear
6:00 PM 68.0 °F - 46.4 °F 46% 30.24 in - WSW 5.8 mph - N/A   Clear
6:30 PM 68.0 °F - 46.4 °F 46% 30.24 in - SW 10.4 mph - N/A   Clear
7:00 PM 66.2 °F - 46.4 °F 49% 30.24 in - SSW 10.4 mph - N/A   Clear
7:30 PM 64.4 °F - 48.2 °F 56% 30.24 in - SSW 9.2 mph - N/A   Clear
8:00 PM 59 °F - 45 °F 50% 30.24 in 31 mi SW 8.9 mph - -   Clear
8:00 PM 59.0 °F - 46.4 °F 63% 30.24 in - SSW 9.2 mph - N/A   Clear
8:30 PM 57.2 °F - 42.8 °F 59% 30.24 in - SSW 10.4 mph - N/A   Clear
9:00 PM 57.2 °F - 42.8 °F 59% 30.24 in - SSW 9.2 mph - N/A   Clear
9:30 PM 55.4 °F - 42.8 °F 63% 30.24 in - SSW 10.4 mph - N/A   Clear
10:00 PM 53.6 °F - 42.8 °F 67% 30.24 in - SSW 10.4 mph - N/A   Clear
10:30 PM 51.8 °F - 42.8 °F 71% 30.24 in - SW 10.4 mph - N/A   Clear
11:00 PM 53.6 °F - 42.8 °F 67% 30.24 in - SW 10.4 mph - N/A   Clear
11:30 PM 51.8 °F - 42.8 °F 71% 30.24 in - SW 10.4 mph - N/A   Clear